Date String (YYYY-MM-DD hh:mm:ss) UTC,Instrument flags,Ambient pressure (hPa),Sample flow (lpm),Bypass flow (lpm),Sample temperature (°C),Ambient temperature (°C),ASC tube jacket temperature (°C),LED temperature (°C),Box temperature (°C),Sample RH (%),Span deviation,Mass concentration (μg/m³),Mass concentration (μg/m³),Mass concentration (μg/m³)
DateTimeUTC,F1_M11,P_M11,Q1_M11,Q2_M11,T1_M11,T2_M11,T3_M11,T4_M11,T5_M11,U1_M11,ZSPAN_M11,X2_M11,X0_M11,X1_M11
2023-04-29 23:00:00,,0830.6,5.00,0.00,30.0,26.7,00.0,38.4,31.3,11.8,0000.0,0004.33,0010.83,0002.29
2023-04-29 23:01:00,,0830.6,4.99,0.00,30.0,27.1,00.0,38.4,31.4,11.9,0000.0,0004.24,0010.48,0002.28
2023-04-29 23:02:00,,0830.6,4.98,0.00,30.0,27.4,00.0,38.4,31.4,11.8,0000.0,0004.26,0010.48,0002.27
2023-04-29 23:03:00,,0830.6,5.02,0.00,30.0,27.7,00.0,38.4,31.4,11.6,0000.0,0004.28,0010.71,0002.26
2023-04-29 23:04:00,,0830.5,5.00,0.00,30.0,27.9,00.0,38.4,31.5,11.5,0000.0,0004.34,0011.04,0002.28
2023-04-29 23:05:00,,0830.6,4.99,0.00,30.0,28.1,00.0,38.4,31.5,11.4,0000.0,0004.35,0011.31,0002.28
2023-04-29 23:06:00,,0830.6,5.00,0.00,30.0,28.2,00.0,38.4,31.5,11.4,0000.0,0004.40,0011.48,0002.28
2023-04-29 23:07:00,,0830.6,4.99,0.00,30.0,28.3,00.0,38.4,31.6,11.5,0000.0,0004.44,0012.01,0002.29
2023-04-29 23:08:00,,0830.6,5.00,0.00,30.0,28.4,00.0,38.4,31.6,11.6,0000.0,0004.48,0012.33,0002.31
2023-04-29 23:09:00,,0830.5,5.00,0.00,30.0,28.5,00.0,38.4,31.6,11.5,0000.0,0004.45,0012.26,0002.34
2023-04-29 23:10:00,,0830.5,5.00,0.00,30.0,28.5,00.0,38.4,31.6,11.4,0000.0,0004.37,0011.50,0002.34
2023-04-29 23:11:00,,0830.6,5.00,0.00,30.0,28.6,00.0,38.4,31.6,11.5,0000.0,0004.38,0011.86,0002.33
2023-04-29 23:12:00,,0830.6,5.00,0.00,30.1,28.6,00.0,38.4,31.6,11.4,0000.0,0004.45,0011.98,0002.35
2023-04-29 23:13:00,,0830.4,5.00,0.00,30.1,28.6,00.0,38.4,31.6,11.4,0000.0,0004.42,0012.18,0002.38
2023-04-29 23:14:00,,0830.4,5.01,0.00,30.1,28.6,00.0,38.5,31.6,11.4,0000.0,0004.40,0012.30,0002.39
2023-04-29 23:15:00,,0830.5,5.00,0.00,30.1,28.7,00.0,38.5,31.6,11.3,0000.0,0004.40,0012.10,0002.40
2023-04-29 23:16:00,,0830.5,5.00,0.00,30.1,28.7,00.0,38.5,31.7,11.5,0000.0,0004.38,0011.80,0002.41
2023-04-29 23:17:00,,0830.4,5.00,0.00,30.1,28.7,00.0,38.5,31.6,11.2,0000.0,0004.27,0011.43,0002.40
2023-04-29 23:18:00,,0830.4,5.00,0.00,30.1,28.7,00.0,38.5,31.6,11.1,0000.0,0004.16,0010.69,0002.40
2023-04-29 23:19:00,,0830.4,5.00,0.00,30.1,28.8,00.0,38.5,31.7,11.6,0000.0,0004.13,0010.38,0002.40
2023-04-29 23:20:00,,0830.7,5.01,0.00,30.1,28.8,00.0,38.5,31.7,11.5,0000.0,0004.11,0010.05,0002.38
2023-04-29 23:21:00,,0830.5,5.00,0.00,30.1,28.8,00.0,38.5,31.7,11.4,0000.0,0004.11,0010.16,0002.36
2023-04-29 23:22:00,,0830.5,4.99,0.00,30.1,28.8,00.0,38.5,31.7,11.5,0000.0,0004.12,0010.00,0002.37
2023-04-29 23:23:00,,0830.6,5.00,0.00,30.2,28.9,00.0,38.5,31.7,11.5,0000.0,0004.10,0010.03,0002.35
2023-04-29 23:24:00,,0830.6,5.00,0.00,30.2,28.9,00.0,38.5,31.7,11.5,0000.0,0004.14,0009.84,0002.34
2023-04-29 23:25:00,,0830.5,4.99,0.00,30.2,28.9,00.0,38.5,31.7,11.2,0000.0,0004.18,0009.48,0002.33
2023-04-29 23:26:00,,0830.5,5.01,0.00,30.2,28.9,00.0,38.6,31.8,11.3,0000.0,0004.20,0009.51,0002.34
2023-04-29 23:27:00,,0830.6,5.00,0.00,30.3,29.0,00.0,38.6,31.8,11.7,0000.0,0004.28,0009.72,0002.35
2023-04-29 23:28:00,,0830.6,5.00,0.00,30.3,29.0,00.0,38.6,31.9,11.4,0000.0,0004.30,0010.04,0002.36
2023-04-29 23:29:00,,0830.5,5.01,0.00,30.3,29.1,00.0,38.6,31.9,11.4,0000.0,0004.36,0010.27,0002.37
2023-04-29 23:30:00,,0830.4,4.99,0.00,30.3,27.9,00.0,38.5,31.8,11.5,0000.0,0004.33,0010.19,0002.37
2023-04-29 23:31:00,,0830.6,5.01,0.00,30.3,26.5,00.0,38.5,31.6,11.5,0000.0,0004.32,0010.10,0002.36
2023-04-29 23:32:00,,0830.5,5.01,0.00,30.2,26.4,00.0,38.4,31.4,11.6,0000.0,0004.29,0009.99,0002.35
2023-04-29 23:33:00,,0830.4,5.00,0.00,30.1,26.6,00.0,38.4,31.3,11.3,0000.0,0004.29,0009.82,0002.35
2023-04-29 23:34:00,,0830.4,5.00,0.00,30.1,27.0,00.0,38.4,31.3,11.3,0000.0,0004.29,0009.83,0002.34
2023-04-29 23:35:00,,0830.5,4.98,0.00,30.0,27.3,00.0,38.4,31.4,11.7,0000.0,0004.24,0009.71,0002.34
2023-04-29 23:36:00,,0830.7,5.00,0.00,30.0,27.6,00.0,38.4,31.4,11.8,0000.0,0004.21,0009.64,0002.36
2023-04-29 23:37:00,,0830.6,5.00,0.00,30.1,27.9,00.0,38.4,31.5,11.3,0000.0,0004.19,0009.63,0002.33
2023-04-29 23:38:00,,0830.5,5.00,0.00,30.1,28.1,00.0,38.4,31.6,11.3,0000.0,0004.13,0009.68,0002.30
2023-04-29 23:39:00,,0830.5,4.99,0.00,30.1,28.3,00.0,38.4,31.6,11.8,0000.0,0004.14,0009.56,0002.29
2023-04-29 23:40:00,,0830.5,5.00,0.00,30.1,28.4,00.0,38.4,31.7,11.6,0000.0,0004.17,0009.85,0002.29
2023-04-29 23:41:00,,0830.6,5.00,0.00,30.1,28.5,00.0,38.5,31.7,12.0,0000.0,0004.18,0010.58,0002.26
2023-04-29 23:42:00,,0830.6,5.00,0.00,30.1,28.7,00.0,38.5,31.7,11.9,0000.0,0004.19,0010.68,0002.25
2023-04-29 23:43:00,,0830.4,5.00,0.00,30.2,28.7,00.0,38.5,31.7,11.9,0000.0,0004.23,0010.71,0002.27
2023-04-29 23:44:00,,0830.4,5.00,0.00,30.2,28.8,00.0,38.5,31.8,11.8,0000.0,0004.24,0010.70,0002.28
2023-04-29 23:45:00,,0830.6,5.01,0.00,30.2,28.8,00.0,38.5,31.7,11.8,0000.0,0004.27,0010.85,0002.30
2023-04-29 23:46:00,,0830.4,5.00,0.00,30.2,28.9,00.0,38.5,31.7,11.6,0000.0,0004.28,0010.92,0002.31
2023-04-29 23:47:00,,0830.4,5.00,0.00,30.2,28.8,00.0,38.5,31.7,11.7,0000.0,0004.24,0010.80,0002.28
2023-04-29 23:48:00,,0830.4,5.00,0.00,30.2,28.8,00.0,38.5,31.7,11.8,0000.0,0004.17,0010.60,0002.27
2023-04-29 23:49:00,,0830.4,5.00,0.00,30.2,28.8,00.0,38.5,31.7,11.8,0000.0,0004.15,0010.47,0002.29
2023-04-29 23:50:00,,0830.4,4.99,0.00,30.2,28.8,00.0,38.5,31.7,11.9,0000.0,0004.15,0010.60,0002.30
2023-04-29 23:51:00,,0830.5,5.00,0.00,30.2,28.8,00.0,38.5,31.7,12.0,0000.0,0004.08,0010.48,0002.29
2023-04-29 23:52:00,,0830.7,4.99,0.00,30.2,28.8,00.0,38.5,31.7,12.0,0000.0,0004.04,0009.79,0002.31
2023-04-29 23:53:00,,0830.5,5.00,0.00,30.2,28.8,00.0,38.6,31.7,11.9,0000.0,0004.03,0009.71,0002.33
2023-04-29 23:54:00,,0830.7,5.00,0.00,30.2,28.8,00.0,38.6,31.8,11.7,0000.0,0003.98,0009.82,0002.33
2023-04-29 23:55:00,,0830.6,5.00,0.00,30.2,28.8,00.0,38.6,31.8,12.0,0000.0,0003.93,0009.75,0002.30
2023-04-29 23:56:00,,0830.6,5.01,0.00,30.2,28.8,00.0,38.6,31.7,11.6,0000.0,0003.86,0009.51,0002.28
2023-04-29 23:57:00,,0830.5,5.00,0.00,30.2,28.9,00.0,38.6,31.8,11.6,0000.0,0003.81,0009.33,0002.27
2023-04-29 23:58:00,,0830.5,4.99,0.00,30.2,28.9,00.0,38.6,31.8,11.8,0000.0,0003.89,0009.54,0002.30
2023-04-29 23:59:00,,0830.5,5.00,0.00,30.2,28.9,00.0,38.6,31.7,12.0,0000.0,0003.96,0009.66,0002.31
